This is the latest recevied weather packets stored in our database for station/object IW3HBX-3. If no packets are shown the sender has not sent any weather packets the latest 10 day(s).
| Time | Temp. | Humidity | Pressure | Rain* | Wind** | Luminosity | Snow |
|---|---|---|---|---|---|---|---|
| 1777704310 | 16.11° C | 55% | 1026.5 hPa | 0 mm | - | 288 W/m² | - |
| 1777704010 | 15.56° C | 56% | 1026.6 hPa | 0 mm | - | 274 W/m² | - |
| 1777703710 | 15.56° C | 56% | 1026.5 hPa | 0 mm | - | 257 W/m² | - |
| 1777703411 | 15° C | 55% | 1026.6 hPa | 0 mm | - | 241 W/m² | - |
| 1777703111 | 15° C | 55% | 1026.6 hPa | 0 mm | - | 224 W/m² | - |
| 1777702811 | 14.44° C | 58% | 1026.6 hPa | 0 mm | - | 208 W/m² | - |
| 1777702511 | 13.89° C | 60% | 1026.6 hPa | 0 mm | - | 195 W/m² | - |
| 1777702212 | 13.89° C | 60% | 1026.6 hPa | 0 mm | - | 179 W/m² | - |
| 1777701912 | 13.89° C | 61% | 1026.7 hPa | 0 mm | - | 165 W/m² | - |
| 1777701612 | 13.33° C | 61% | 1026.7 hPa | 0 mm | - | 150 W/m² | - |
| 1777701312 | 12.78° C | 62% | 1026.7 hPa | 0 mm | - | 136 W/m² | - |
| 1777701012 | 12.78° C | 62% | 1026.7 hPa | 0 mm | - | 125 W/m² | - |
| 1777700713 | 12.78° C | 62% | 1026.7 hPa | 0 mm | - | 112 W/m² | - |
| 1777700413 | 12.22° C | 62% | 1026.6 hPa | 0 mm | - | 100 W/m² | - |
| 1777700113 | 11.67° C | 65% | 1026.7 hPa | 0 mm | - | 89 W/m² | - |
| 1777699813 | 11.11° C | 66% | 1026.8 hPa | 0 mm | - | 80 W/m² | - |
| 1777699514 | 11.67° C | 65% | 1026.8 hPa | 0 mm | - | 73 W/m² | - |
| 1777699214 | 11.11° C | 66% | 1026.8 hPa | 0 mm | - | 66 W/m² | - |
| 1777698914 | 11.11° C | 65% | 1026.8 hPa | 0 mm | - | 60 W/m² | - |
| 1777698615 | 11.11° C | 65% | 1026.7 hPa | 0 mm | - | 55 W/m² | - |
| 1777698315 | 11.11° C | 65% | 1026.6 hPa | 0 mm | - | 50 W/m² | - |
| 1777698015 | 11.11° C | 67% | 1026.6 hPa | 0 mm | - | 47 W/m² | - |
| 1777697715 | 10.56° C | 69% | 1026.6 hPa | 0 mm | - | 42 W/m² | - |
| 1777697415 | 10.56° C | 68% | 1026.5 hPa | 0 mm | - | 38 W/m² | - |
| 1777697116 | 10° C | 69% | 1026.6 hPa | 0 mm | - | 34 W/m² | - |
* Rain latest hour (hover to see other rain measurements)
** Current wind speed in m/s (hover to see current wind gust speed)